Lagoon City, Ontario

Past 24 Hour Conditions

Date / Time
(EST)
Conditions Temp
(°F)
Humidity
(%)
Dew Point
(°F)
Wind
(mph)
Pressure
(inches)
Visibility
(miles)
24 November 2014
17:00 N/A 50   82 44 SSW 24 gust 30 29.1 N/A
16:00 N/A 49 86 45 SSW 25 29.1 N/A
15:00 N/A 48 92 46 SSW 22 29.1 N/A
14:00 N/A 48 96 47 SSW 19 29.1 N/A
13:00 N/A 50   94 48 SSW 24 29.1 N/A
12:00 N/A 49 95 48 SW 22 gust 29 29.1 N/A
11:00 N/A 50   92 48 S 22 29.1 N/A
10:00 N/A 50   91 48 SSW 24 29.1 N/A
9:00 N/A 50   93 48 S 25 29.1 N/A
8:00 N/A 49 91 47 SSE 29 29.1 N/A
7:00 N/A 49 89 46 SSE 25 gust 34 29.1 N/A
6:00 N/A 49 91 46 SE 20 gust 28 29.2 N/A
5:00 N/A 49 91 46 SE 25 gust 29 29.2 N/A
4:00 N/A 45 93 43 ESE 20 gust 28 29.3 N/A
3:00 N/A 43 92 40 ESE 19 gust 28 29.3 N/A
2:00 N/A 44 81 38 ESE 17 gust 23 29.4 N/A
1:00 N/A 44 77 37 ESE 16 gust 22 29.5 N/A
00:00 N/A 44 80 38 ESE 15 29.6 N/A
23 November 2014
23:00 N/A 44 83 39 E 14 gust 21 29.6 N/A
22:00 N/A 43 84 39 ESE 12 gust 17 29.7 N/A
21:00 N/A 43 87 40 E 13 29.7 N/A
20:00 N/A 42   94 40 E 8 29.8 N/A
19:00 N/A 43 96 42 SE 7 29.8 N/A
18:00 N/A 43 95 41 SE 9 29.8 N/A
17:00 N/A 44 93 42 ESE 9 29.8 N/A
N/A Not available
↑ Highest temperature
↓ Lowest temperature

If you require additional historical weather information, please visit Climate Data Online.

Date modified: